THA635 RCTP-VTBS

Flight info

Callsign THA635
Flight time N/A
Altitude 36000
Route CHALI1A CHALI T3 MKG A1 KADLO T1 KAPLI DCT MADRU DCT SULUX DCT IGLEG DCT IKELA/K0848F360 A1 PAPRA/N0457F360 A1 UBL Y20 GRASO Y13 RUKSA EASTE1C
Aircraft A21N/M-SDE3FGHIRWY/LB1

Departure

Time N/A
Airport Taiwan Taoyuan International Airport (RCTP)

Arrival

Time 2026-05-07 17:51
Airport Suvarnabhumi Airport (VTBS)
Time Latitude Longitude Altitude Speed Heading
2026-05-07 17:32 14.57451 101.95288 24957 ft 431 kts 251°
2026-05-07 17:32 14.56521 101.92399 24719 ft 429 kts 250°
2026-05-07 17:32 14.55815 101.90464 24558 ft 427 kts 248°
2026-05-07 17:33 14.54330 101.86715 24241 ft 425 kts 246°
2026-05-07 17:33 14.53190 101.83873 23998 ft 424 kts 246°
2026-05-07 17:33 14.52065 101.81074 23759 ft 422 kts 246°
2026-05-07 17:33 14.50946 101.78286 23520 ft 421 kts 246°
2026-05-07 17:34 14.49836 101.75521 23283 ft 419 kts 246°
2026-05-07 17:34 14.48723 101.72747 23045 ft 417 kts 246°
2026-05-07 17:34 14.47620 101.69998 22809 ft 415 kts 246°
2026-05-07 17:34 14.46525 101.67268 22574 ft 413 kts 246°
2026-05-07 17:35 14.45432 101.64545 22338 ft 412 kts 246°
2026-05-07 17:35 14.44259 101.61862 22034 ft 409 kts 241°
2026-05-07 17:35 14.42871 101.59292 21366 ft 412 kts 239°
2026-05-07 17:35 14.41445 101.56784 20868 ft 404 kts 238°
2026-05-07 17:36 14.40037 101.54305 20123 ft 402 kts 238°
2026-05-07 17:36 14.38645 101.51826 19181 ft 399 kts 239°
2026-05-07 17:36 14.37275 101.49365 18213 ft 396 kts 239°
2026-05-07 17:36 14.35928 101.46931 17276 ft 391 kts 239°
2026-05-07 17:37 14.34600 101.44522 16361 ft 386 kts 239°
2026-05-07 17:37 14.33296 101.42150 15450 ft 380 kts 239°
2026-05-07 17:37 14.32000 101.39790 14544 ft 375 kts 239°
2026-05-07 17:37 14.30736 101.37488 13634 ft 370 kts 239°
2026-05-07 17:38 14.29479 101.35200 12721 ft 365 kts 239°
2026-05-07 17:38 14.28246 101.32960 11847 ft 359 kts 239°
2026-05-07 17:38 14.27042 101.30769 11127 ft 349 kts 240°
2026-05-07 17:38 14.25853 101.28606 10616 ft 344 kts 240°
2026-05-07 17:39 14.24674 101.26463 10375 ft 344 kts 240°
2026-05-07 17:39 14.23502 101.24330 10143 ft 343 kts 240°
2026-05-07 17:39 14.22336 101.22207 9947 ft 334 kts 240°
2026-05-07 17:39 14.21219 101.20176 9859 ft 320 kts 240°
2026-05-07 17:40 14.20148 101.18228 9726 ft 308 kts 240°
2026-05-07 17:40 14.19087 101.16301 9401 ft 305 kts 240°
2026-05-07 17:40 14.18045 101.14410 9058 ft 302 kts 240°
2026-05-07 17:40 14.17022 101.12551 8710 ft 300 kts 240°
2026-05-07 17:41 14.15988 101.10675 8358 ft 298 kts 240°
2026-05-07 17:41 14.14975 101.08835 8009 ft 296 kts 240°
2026-05-07 17:41 14.13956 101.06986 7660 ft 294 kts 240°
2026-05-07 17:41 14.12963 101.05185 7321 ft 292 kts 240°
2026-05-07 17:42 14.11962 101.03369 6975 ft 290 kts 240°
2026-05-07 17:42 14.10972 101.01574 6629 ft 288 kts 240°
2026-05-07 17:42 14.09980 100.99775 6278 ft 287 kts 240°
2026-05-07 17:42 14.08993 100.97987 5934 ft 285 kts 240°
2026-05-07 17:43 14.08021 100.96225 5599 ft 283 kts 240°
2026-05-07 17:43 14.07048 100.94462 5261 ft 281 kts 240°
2026-05-07 17:43 14.06094 100.92733 4934 ft 279 kts 240°
2026-05-07 17:43 14.05133 100.90993 4603 ft 277 kts 240°
2026-05-07 17:44 14.04189 100.89281 4281 ft 275 kts 240°
2026-05-07 17:44 14.03250 100.87582 4128 ft 264 kts 240°
2026-05-07 17:44 14.02522 100.86263 4062 ft 254 kts 240°
2026-05-07 17:44 14.01542 100.84836 3932 ft 243 kts 219°
2026-05-07 17:45 14.00046 100.84103 3924 ft 238 kts 193°
2026-05-07 17:45 13.98409 100.83708 3830 ft 241 kts 192°
2026-05-07 17:45 13.96787 100.83319 3590 ft 240 kts 193°
2026-05-07 17:45 13.95168 100.82916 3352 ft 238 kts 193°
2026-05-07 17:46 13.93551 100.82499 3113 ft 237 kts 194°
2026-05-07 17:46 13.91962 100.82077 2975 ft 235 kts 194°
2026-05-07 17:46 13.90354 100.81651 2971 ft 235 kts 194°
2026-05-07 17:46 13.88765 100.81232 2967 ft 233 kts 194°
2026-05-07 17:47 13.87247 100.80833 2952 ft 220 kts 194°
2026-05-07 17:47 13.85765 100.80445 2961 ft 217 kts 194°
2026-05-07 17:47 13.84343 100.80074 2943 ft 204 kts 194°
2026-05-07 17:47 13.82984 100.79718 2683 ft 199 kts 194°
2026-05-07 17:48 13.81640 100.79367 2410 ft 193 kts 194°
2026-05-07 17:48 13.80358 100.79033 2148 ft 183 kts 194°
2026-05-07 17:48 13.79167 100.78721 1924 ft 167 kts 194°
2026-05-07 17:48 13.78093 100.78440 1709 ft 154 kts 194°
2026-05-07 17:49 13.77079 100.78175 1509 ft 147 kts 194°
2026-05-07 17:49 13.76079 100.77912 1342 ft 148 kts 194°
2026-05-07 17:49 13.75074 100.77648 1165 ft 148 kts 194°
2026-05-07 17:49 13.74074 100.77387 980 ft 148 kts 194°
2026-05-07 17:50 13.73061 100.77119 788 ft 148 kts 194°
2026-05-07 17:50 13.72070 100.76858 603 ft 148 kts 194°
2026-05-07 17:50 13.71068 100.76602 413 ft 148 kts 194°
2026-05-07 17:50 13.70053 100.76334 219 ft 148 kts 194°
2026-05-07 17:51 13.69052 100.76070 44 ft 149 kts 194°
2026-05-07 17:51 13.68100 100.75820 8 ft 126 kts 194°
2026-05-07 17:51 13.67448 100.75649 8 ft 71 kts 193°
2026-05-07 17:51 13.67201 100.75566 8 ft 26 kts 218°
2026-05-07 17:52 13.67115 100.75460 8 ft 10 kts 245°
2026-05-07 17:52 13.67135 100.75401 8 ft 10 kts 355°
2026-05-07 17:52 13.67215 100.75410 8 ft 11 kts 14°
2026-05-07 17:52 13.67297 100.75432 8 ft 12 kts 14°
2026-05-07 17:53 13.67383 100.75455 8 ft 13 kts 15°
2026-05-07 17:53 13.67483 100.75481 8 ft 15 kts 14°
2026-05-07 17:53 13.67588 100.75510 8 ft 15 kts 14°
2026-05-07 17:53 13.67695 100.75537 8 ft 15 kts 14°
2026-05-07 17:54 13.67804 100.75565 8 ft 16 kts 14°
2026-05-07 17:54 13.67924 100.75596 8 ft 18 kts 15°
2026-05-07 17:54 13.68055 100.75631 8 ft 19 kts 14°
2026-05-07 17:54 13.68194 100.75667 8 ft 21 kts 14°
2026-05-07 17:55 13.68339 100.75704 8 ft 22 kts 14°
2026-05-07 17:55 13.68493 100.75745 8 ft 22 kts 14°
2026-05-07 17:55 13.68650 100.75786 8 ft 23 kts 14°
2026-05-07 17:55 13.68813 100.75828 8 ft 24 kts 14°
2026-05-07 17:56 13.68976 100.75869 8 ft 23 kts 14°
2026-05-07 17:56 13.69075 100.75890 8 ft 10 kts 353°
2026-05-07 17:56 13.69116 100.75833 8 ft 11 kts 284°
2026-05-07 17:56 13.69136 100.75751 8 ft 12 kts 285°
2026-05-07 17:57 13.69146 100.75697 8 ft 4 kts 241°
2026-05-07 17:57 13.69125 100.75685 8 ft 5 kts 194°
2026-05-07 17:57 13.69078 100.75674 8 ft 5 kts 194°
2026-05-07 17:57 13.69064 100.75670 8 ft 0 kts 194°